Volver al catálogo

COMPASS G2

ActivoNavegaciónMEO
NORAD 34779·PAYLOAD·🇨🇳 China

Lanzado Apr 14, 2009 desde Xichang Satellite Launch Center

Loading…

Próximos Pases (próximas 24 horas)

TLE

ActualizadoSource: Space-Track

Época: Sep 14, 2026, 12:05 UTC

1 34779U 09018A   26257.50380830 -.00000161  00000-0  00000-0 0  9996
2 34779  11.6242  41.5012 0304809 287.3908  79.5447  0.94517318 63005

Sigue COMPASS G2 en tiempo real con AllMySat

Download on the App Store